Other Public Products
Issued by NWS Charleston, SC

Home | Current Version | Previous Version | Text Only | Print | Product List | Glossary On
Versions: 1 2 3 4 5 6 7 8 9 10 11 12 13 14 15 16 17 18 19 20 21 22 23 24 25 26 27 28 29 30 31 32 33 34 35 36 37 38 39 40 41 42 43 44 45 46 47 48 49 50
000
FPUS82 KCHS 260827
OPUCHS

TEST...KCHS/KSAV Gateway Observations...TEST
National Weather Service Charleston SC
400 AM EDT WED APR 26 2017

NOTE: "fair" indicates few or no clouds below 12,000 feet with no
significant weather and/or obstructions to visibility.

SCZ050-WAZ558-NCZ071-TXZ119-213-PAZ071-DCZ001-FLZ074-172-MI076-
NYZ176-178-MAZ016-IL014-TNZ027-NJZ106-GAZ044-MD014-260900-

...Gateway Observations for Charleston International...

CITY           SKY/WX    TMP DP  RH WIND       PRES   REMARKS
Chas Airport   PTCLDY    63  59  87 SE5       29.77F
Seattle        CLOUDY    50  49  96 S14       29.78S
Charlotte      PTCLDY    57  55  93 CALM      29.76F
Dallas DFW     CLOUDY    76  69  79 S17G28    29.43R
Dallas Love    CLOUDY    76  68  76 S10G20    29.43R
Philladelphia  LGT RAIN  56  54  93 NE17      29.71S
Wash National  CLOUDY    59  58  96 N9        29.70S FOG
Baltimore      CLOUDY    56  56 100 NW5       29.69S FOG
Miami          CLEAR     66  58  75 CALM      29.87F
Detroit        PTCLDY    57  53  86 SE5       29.70F
Newark         DRIZZLE   54  54 100 N14       29.76F FOG
Laguardia      DRZL/FOG  53  51  93 NE16      29.76F VSB 1
J F K          LGT RAIN  55  54  96 N12       29.76F FOG
Boston Logan   LGT RAIN  49  49 100 NE13      29.95F FOG
Ft. Lauderdale CLEAR     67  60  78 CALM      29.87S
Chicago O`Hare CLOUDY    67  54  63 S14       29.49F
Chicago Midway CLOUDY    68  55  63 S13       29.50F
Houston Bush   CLOUDY    77  69  76 S15       29.54F
Houston Hobby  CLOUDY    76  71  85 S16       29.54F
Nashville      CLEAR     62  55  77 CALM      29.69S
Atlanta        CLEAR     61  56  83 SW3       29.76F

$$

GAZ044-118-TXZ119-213-NCZ071-DCZ001-MDZ014-506-PAZ021-071-NJZ106-
NYZ176-178-MAZ106-OHZ011-021-055-MIZ076-KYZ091-ILZ014-INZ047-
MNZ060-ONZ431-260900-

...Gateway Observations for Savannah International...

CITY           SKY/WX    TMP DP  RH WIND       PRES   REMARKS
Savannah Arpt  PTCLDY    64  57  78 SW6       29.78S
Atlanta        CLEAR     61  56  83 SW3       29.76F
Charlotte      PTCLDY    57  55  93 CALM      29.76F
Dallas DFW     CLOUDY    76  69  79 S17G28    29.43R
Houston Bush   CLOUDY    77  69  76 S15       29.54F
Wash National  CLOUDY    59  58  96 N9        29.70S FOG
Wash Dulles    CLOUDY    57  54  89 N10       29.72S
Baltimore      CLOUDY    56  56 100 NW5       29.69S FOG
Philadelphia   LGT RAIN  56  54  93 NE17      29.71S
Newark         DRIZZLE   54  54 100 N14       29.76F FOG
Laguardia      DRZL/FOG  53  51  93 NE16      29.76F VSB 1
J F K          LGT RAIN  55  54  96 N12       29.76F FOG
Boston         LGT RAIN  49  49 100 NE13      29.95F FOG
Pittsburg      PTCLDY    53  53 100 CALM      29.75F
Akron          CLOUDY    54  51  90 SE8       29.76F FOG
Cleveland      PTCLDY    58  51  78 SE7       29.76F
Cincinnati     CLEAR     59  55  87 S3        29.70S
Columbus       CLEAR     53  52  98 E5        29.71F
Detroit        PTCLDY    57  53  86 SE5       29.70F
Chicago O`Hare CLOUDY    67  54  63 S14       29.49F
Minneapolis    LGT RAIN  44  41  89 N13       29.49F
Indianapolis   PTCLDY    61  55  81 SE12      29.62F
Toronto Canada MOCLDY    48  46  93 E7        29.80F

$$




USA.gov is the U.S. government's official web portal to all federal, state and local government web resources and services.